Location: Melbourne
(37.8170°S, 144.9670°E)
Time: 11:09:15
(UTC+10:00)

ERBS - Visible Passes

Search period start: 27 August 2016 00:00
Search period end: 06 September 2016 00:00
Orbit: 438 x 446 km, 57.0° (Epoch: 26 August)

Date Brightness Start Highest point End Pass type
(mag) Time Alt. Az. Time Alt. Az. Time Alt. Az.
28 Aug 4.9 19:45:36 10° S 19:46:18 13° S 19:46:18 13° S visible
29 Aug 4.5 19:06:18 10° S 19:08:11 14° SSE 19:08:11 14° SSE visible
30 Aug 4.8 18:27:55 10° SSE 18:28:08 10° SSE 18:28:21 10° SSE visible
30 Aug 4.4 20:02:02 10° SW 20:03:38 24° SSW 20:03:38 24° SSW visible
31 Aug 2.9 19:22:19 10° SSW 19:25:43 41° SE 19:25:43 41° SE visible
01 Sep 3.5 18:42:42 10° SSW 18:45:47 27° SE 18:47:57 15° E visible
01 Sep 4.9 20:19:35 10° WSW 20:21:26 21° W 20:21:26 21° W visible
02 Sep 3.5 19:39:26 10° SW 19:42:46 40° NW 19:43:50 31° N visible
03 Sep 2.6 18:59:28 10° SW 19:02:59 70° NW 19:06:26 10° NNE visible
05 Sep 5.4 19:17:42 10° W 19:19:44 15° WNW 19:21:47 10° NNW visible
